Time,TemperatureF,DewpointF,PressureIn,WindDirection,WindDirectionDegrees,WindSpeedMPH,WindSpeedGustMPH,Humidity,HourlyPrecipIn,Conditions,Clouds,dailyrainin,SolarRadiationWatts/m^2,SoftwareType,DateUTC
2013-09-01 00:03:00,74.0,72.0,-100.00,SSE,157,1.0,4.0,95,0.00,,,0.00,0.000000,,2013-09-01 05:03:00,
2013-09-01 00:43:00,74.0,73.0,-100.00,North,6,3.0,5.0,96,0.00,,,0.00,0.000000,,2013-09-01 05:43:00,
2013-09-01 00:52:00,74.0,73.0,-100.00,North,6,3.0,5.0,96,0.00,,,0.00,0.000000,,2013-09-01 05:52:00,
2013-09-01 01:02:00,74.0,73.0,-100.00,North,6,3.0,5.0,96,0.00,,,0.00,0.000000,,2013-09-01 06:02:00,
2013-09-01 01:42:00,72.0,69.0,-100.00,SW,230,2.0,9.0,89,0.00,,,0.00,0.000000,,2013-09-01 06:42:00,
2013-09-01 01:52:00,72.0,69.0,-100.00,SW,230,2.0,9.0,89,0.00,,,0.00,0.000000,,2013-09-01 06:52:00,
2013-09-01 02:02:00,72.0,69.0,-100.00,SW,230,2.0,9.0,89,0.00,,,0.00,0.000000,,2013-09-01 07:02:00,
2013-09-01 02:42:00,71.0,69.0,-100.00,SSW,203,2.0,5.0,92,0.00,,,0.00,0.000000,,2013-09-01 07:42:00,
2013-09-01 02:52:00,71.0,69.0,-100.00,SSW,203,2.0,5.0,92,0.00,,,0.00,0.000000,,2013-09-01 07:52:00,
2013-09-01 03:02:00,71.0,69.0,-100.00,SSW,203,2.0,5.0,92,0.00,,,0.00,0.000000,,2013-09-01 08:02:00,
2013-09-01 03:43:00,70.0,69.0,-100.00,NE,41,1.0,5.0,96,0.00,,,0.00,0.000000,,2013-09-01 08:43:00,
2013-09-01 03:52:00,70.0,69.0,-100.00,NE,41,1.0,5.0,96,0.00,,,0.00,0.000000,,2013-09-01 08:52:00,
2013-09-01 04:02:00,70.0,69.0,-100.00,NE,41,1.0,5.0,96,0.00,,,0.00,0.000000,,2013-09-01 09:02:00,
2013-09-01 04:43:00,70.0,68.0,-100.00,WSW,249,2.0,20.0,94,0.00,,,0.00,0.000000,,2013-09-01 09:43:00,
2013-09-01 04:53:00,70.0,68.0,-100.00,WSW,249,2.0,20.0,94,0.00,,,0.00,0.000000,,2013-09-01 09:53:00,
2013-09-01 05:03:00,70.0,68.0,-100.00,WSW,249,2.0,20.0,94,0.00,,,0.00,0.000000,,2013-09-01 10:03:00,
2013-09-01 05:42:00,69.0,69.0,-100.00,SSW,204,2.0,6.0,100,0.01,,,0.01,0.000000,,2013-09-01 10:42:00,
2013-09-01 05:53:00,69.0,69.0,-100.00,SSW,204,2.0,6.0,100,0.01,,,0.01,0.000000,,2013-09-01 10:53:00,
2013-09-01 06:02:00,69.0,69.0,-100.00,SSW,204,2.0,6.0,100,0.01,,,0.01,0.000000,,2013-09-01 11:02:00,
2013-09-01 06:42:00,68.0,68.0,-100.00,NW,325,4.0,7.0,100,0.01,,,0.02,0.000000,,2013-09-01 11:42:00,
2013-09-01 06:52:00,68.0,68.0,-100.00,NW,325,4.0,7.0,100,0.01,,,0.02,0.000000,,2013-09-01 11:52:00,
2013-09-01 07:01:00,68.0,68.0,-100.00,NW,325,4.0,7.0,100,0.01,,,0.02,0.000000,,2013-09-01 12:01:00,
2013-09-01 07:42:00,69.0,69.0,-100.00,SW,214,3.0,6.0,100,0.00,,,0.02,7.000000,,2013-09-01 12:42:00,
2013-09-01 07:52:00,69.0,69.0,-100.00,SW,214,3.0,6.0,100,0.00,,,0.02,7.000000,,2013-09-01 12:52:00,
2013-09-01 08:02:00,69.0,69.0,-100.00,SW,214,3.0,6.0,100,0.00,,,0.02,7.000000,,2013-09-01 13:02:00,
2013-09-01 08:42:00,69.0,69.0,-100.00,SW,216,4.0,10.0,100,0.01,,,0.03,17.000000,,2013-09-01 13:42:00,
2013-09-01 08:52:00,69.0,69.0,-100.00,SW,216,4.0,10.0,100,0.01,,,0.03,17.000000,,2013-09-01 13:52:00,
2013-09-01 09:02:00,69.0,69.0,-100.00,SW,216,4.0,10.0,100,0.01,,,0.03,17.000000,,2013-09-01 14:02:00,
2013-09-01 09:42:00,71.0,71.0,-100.00,SSW,210,5.0,10.0,100,0.00,,,0.03,102.000000,,2013-09-01 14:42:00,
2013-09-01 09:52:00,71.0,71.0,-100.00,SSW,210,5.0,10.0,100,0.00,,,0.03,102.000000,,2013-09-01 14:52:00,
2013-09-01 10:02:00,71.0,71.0,-100.00,SSW,210,5.0,10.0,100,0.00,,,0.03,102.000000,,2013-09-01 15:02:00,
2013-09-01 10:45:00,75.0,72.0,-100.00,SW,217,4.0,11.0,89,0.00,,,0.03,315.000000,,2013-09-01 15:45:00,
2013-09-01 10:55:00,75.0,72.0,-100.00,SW,217,4.0,11.0,89,0.00,,,0.03,315.000000,,2013-09-01 15:55:00,
2013-09-01 11:05:00,75.0,72.0,-100.00,SW,217,4.0,11.0,89,0.00,,,0.03,315.000000,,2013-09-01 16:05:00,
2013-09-01 11:53:00,80.0,71.0,-100.00,SW,225,4.0,9.0,74,0.00,,,0.03,449.000000,,2013-09-01 16:53:00,
2013-09-01 12:03:00,80.0,71.0,-100.00,SW,225,4.0,9.0,74,0.00,,,0.03,449.000000,,2013-09-01 17:03:00,
2013-09-01 12:42:00,80.0,72.0,-100.00,SSW,207,3.0,8.0,77,0.00,,,0.03,291.000000,,2013-09-01 17:42:00,
2013-09-01 12:52:00,80.0,72.0,-100.00,SSW,207,3.0,8.0,77,0.00,,,0.03,291.000000,,2013-09-01 17:52:00,
2013-09-01 13:02:00,80.0,72.0,-100.00,SSW,207,3.0,8.0,77,0.00,,,0.03,291.000000,,2013-09-01 18:02:00,
2013-09-01 13:42:00,79.0,68.0,-100.00,SW,225,4.0,8.0,69,0.01,,,0.04,433.000000,,2013-09-01 18:42:00,
2013-09-01 13:52:00,79.0,68.0,-100.00,SW,225,4.0,8.0,69,0.01,,,0.04,433.000000,,2013-09-01 18:52:00,
2013-09-01 14:02:00,79.0,68.0,-100.00,SW,225,4.0,8.0,69,0.01,,,0.04,433.000000,,2013-09-01 19:02:00,
2013-09-01 14:42:00,81.0,71.0,-100.00,SW,221,4.0,11.0,71,0.00,,,0.04,410.000000,,2013-09-01 19:42:00,
2013-09-01 14:52:00,81.0,71.0,-100.00,SW,221,4.0,11.0,71,0.00,,,0.04,410.000000,,2013-09-01 19:52:00,
2013-09-01 15:02:00,81.0,71.0,-100.00,SW,221,4.0,11.0,71,0.00,,,0.04,410.000000,,2013-09-01 20:02:00,
2013-09-01 16:44:00,83.0,70.0,-100.00,SW,233,4.0,8.0,66,-99.99,,,0.04,463.000000,,2013-09-01 21:44:00,
2013-09-01 16:55:00,83.0,70.0,-100.00,SW,233,4.0,8.0,66,-99.99,,,0.04,463.000000,,2013-09-01 21:55:00,
2013-09-01 17:04:00,83.0,70.0,-100.00,SW,233,4.0,8.0,66,-99.99,,,0.04,463.000000,,2013-09-01 22:04:00,
2013-09-01 17:43:00,82.0,69.0,-100.00,SW,225,3.0,9.0,64,0.01,,,0.05,387.000000,,2013-09-01 22:43:00,
2013-09-01 17:53:00,82.0,69.0,-100.00,SW,225,3.0,9.0,64,0.01,,,0.05,387.000000,,2013-09-01 22:53:00,
2013-09-01 18:03:00,82.0,69.0,-100.00,SW,225,3.0,9.0,64,0.01,,,0.05,387.000000,,2013-09-01 23:03:00,
2013-09-01 18:42:00,79.0,71.0,-100.00,SSW,197,2.0,7.0,77,0.00,,,0.05,61.000000,,2013-09-01 23:42:00,
2013-09-01 18:53:00,79.0,71.0,-100.00,SSW,197,2.0,7.0,77,0.00,,,0.05,61.000000,,2013-09-01 23:53:00,
2013-09-01 19:02:00,79.0,71.0,-100.00,SSW,197,2.0,7.0,77,0.00,,,0.05,61.000000,,2013-09-02 00:02:00,
2013-09-01 19:42:00,75.0,70.0,-100.00,SSW,212,2.0,5.0,84,0.00,,,0.05,35.000000,,2013-09-02 00:42:00,
2013-09-01 19:52:00,75.0,70.0,-100.00,SSW,212,2.0,5.0,84,0.00,,,0.05,35.000000,,2013-09-02 00:52:00,
2013-09-01 20:02:00,75.0,70.0,-100.00,SSW,212,2.0,5.0,84,0.00,,,0.05,35.000000,,2013-09-02 01:02:00,
2013-09-01 20:42:00,72.0,69.0,-100.00,SSE,157,0.0,3.0,91,0.00,,,0.05,0.000000,,2013-09-02 01:42:00,
2013-09-01 20:52:00,72.0,69.0,-100.00,SSE,157,0.0,3.0,91,0.00,,,0.05,0.000000,,2013-09-02 01:52:00,
2013-09-01 21:02:00,72.0,69.0,-100.00,SSE,157,0.0,3.0,91,0.00,,,0.05,0.000000,,2013-09-02 02:02:00,
2013-09-01 21:42:00,71.0,70.0,-100.00,SSE,152,1.0,2.0,96,0.00,,,0.05,0.000000,,2013-09-02 02:42:00,
2013-09-01 21:52:00,71.0,70.0,-100.00,SSE,152,1.0,2.0,96,0.00,,,0.05,0.000000,,2013-09-02 02:52:00,
2013-09-01 22:02:00,71.0,70.0,-100.00,SSE,152,1.0,2.0,96,0.00,,,0.05,0.000000,,2013-09-02 03:02:00,
2013-09-01 22:44:00,71.0,71.0,-100.00,SSE,151,0.0,3.0,99,0.00,,,0.05,0.000000,,2013-09-02 03:44:00,
2013-09-01 22:56:00,71.0,71.0,-100.00,SSE,151,0.0,3.0,99,0.00,,,0.05,0.000000,,2013-09-02 03:56:00,
2013-09-01 23:04:00,71.0,71.0,-100.00,SSE,151,0.0,3.0,99,0.00,,,0.05,0.000000,,2013-09-02 04:04:00,
2013-09-01 23:44:00,71.0,71.0,-100.00,SSW,209,3.0,6.0,99,0.00,,,0.05,0.000000,,2013-09-02 04:44:00,
2013-09-01 23:54:00,71.0,71.0,-100.00,SSW,209,3.0,6.0,99,0.00,,,0.05,0.000000,,2013-09-02 04:54:00,